ASTRA 1G
1 25071U 97076A   03042.06871484  .00000000  00000-0  10000-3 0  3911
2 25071   0.0217 242.6326 0075903 319.6138 343.2677  1.00272369 19065
INMARSAT 3-F5
1 25153U 98006B   03042.93125001  .00000150  00000-0  10000-3 0  8426
2 25153   0.4667 353.4307 0002918 342.1551 166.1795  1.00269609 18431
HOT BIRD 4
1 25237U 98013A   03044.99704955  .00000092  00000-0  10000-3 0  3268
2 25237   0.0271 352.7901 0007523 278.3132 244.4850  1.00273304 18490
NOAA 15
1 25338U 98030A   03045.87487512  .00000240  00000-0  12259-3 0    51
2 25338  98.5501  68.1253 0010351 333.0931  26.9710 14.24243233247273
RESURS O1-N4
1 25394U 98043A   03045.91157658  .00000152  00000-0  85353-4 0  4486
2 25394  98.6314 123.9078 0002321 109.5360 250.6067 14.23876589239012
TMSAT
1 25396U 98043C   03043.91273721 -.00000043 +00000-0 +00000-0 0 08257
2 25396 098.6281 121.1306 0003622 139.2789 220.8667 14.23508990238721
TECHSAT 1B
1 25397U 98043D   03043.93235492 +.00000084 +00000-0 +56371-4 0 01335
2 25397 098.6224 120.0366 0001678 133.8159 226.3156 14.22958555238698
ASTRA 2A
1 25462U 98050A   03041.00000000  .00000159  00000-0  00000+0 0  5315
2 25462   0.0385 308.7109 0004824 280.8620 298.3055  1.00272094 16351
EUTELSAT W2
1 25491U 98056A   03044.86217065  .00000109  00000-0  00000+0 0  5787
2 25491   0.0103 111.2185 0003737 188.6792 169.9444  1.00270269 16008
HOT BIRD 5
1 25495U 98057A   03042.93716436  .00000165  00000-0  00000+0 0  5001
2 25495   0.0310 255.9940 0003377  65.4663 190.5501  1.00272693 15956
SEDSAT 1
1 25509U 98061B   03045.66451105  .00001197  00000-0  22612-3 0  7795
2 25509  31.4290 175.2243 0358399 268.7552  87.2014 14.27430090224750
PAN SAT
1 25520U 98064B   03043.82387660 +.00003285 +00000-0 +16669-3 0 06403
2 25520 028.4592 262.1240 0005695 284.6721 075.3214 15.13855201236710
ISS (ZARYA)
1 25544U 98067A   03046.19444444  .00022586  00000-0  29644-3 0  6917
2 25544  51.6345 272.9263 0012301 203.5259 291.3274 15.58359528241972
ORSTED
1 25635U 99008B   03045.09601001  .00001382  00000-0  35714-3 0  8318
2 25635  96.4501  32.3989 0145567 343.9472  15.7136 14.44833732209296
SUNSAT
1 25636U 99008C   03043.96172172 +.00000666 +00000-0 +18212-3 0 07211
2 25636 096.4523 030.2042 0149517 353.8708 006.0662 14.42948994209000
UOSAT 12
1 25693U 99021A   03046.16331809  .00000879  00000-0  14564-3 0  7041
2 25693  64.5607  21.2086 0019866 315.6007  44.3499 14.76387251205752
FENGYUN 1C
1 25730U 99025A   03046.18025444  .00000025  00000-0  36695-4 0  7676
2 25730  98.6343  70.7076 0014665  15.8621 344.3007 14.11733479194155
ASTRA 1H
1 25785U 99033A   03041.00000000  .00000129  00000-0  10000-3 0  3719
2 25785   0.0122 319.8851 0002995  65.1991 133.7806  1.00273184 13418
TERRA
1 25994U 99068A   03046.15399739  .00000617  00000-0  14693-3 0  6986
2 25994  98.1998 122.4286 0000869  73.7768 286.3526 14.57128871168170
JAWSAT
1 26061U 00004A   03045.89094808  .00000654  00000-0  23509-3 0  7655
2 26061 100.2085 102.2783 0034683 290.0719  69.6730 14.37821503160000
OPAL
1 26063U 00004C   03045.72169970  .00000180  00000-0  82752-4 0  7214
2 26063 100.2135  99.6042 0036929 298.1585  61.5866 14.35479903159831
ASUSAT
1 26065U 00004E   03045.53924730  .00000218  00000-0  95653-4 0  7337
2 26065 100.2113  99.5358 0037024 299.6343  60.1152 14.35507441159802
GOES 11
1 26352U 00022A   03045.21939275 -.00000030  00000-0  10000-3 0   227
2 26352   0.1298 104.0860 0003623 194.1199 171.2949  1.00265080 10193
EUTELSAT W4
1 26369U 00028A   03042.91619900  .00000164  00000-0  00000+0 0  3523
2 26369   0.0295   8.5955 0003064 313.2309 185.6602  1.00275437  9983
FENGYUN 2B
1 26382U 00032A   03044.70694568 -.00000324  00000-0  00000+0 0  7944
2 26382   0.5813 287.6003 0001562 229.0482 345.4905  1.00279090  9666
EUTELSAT W1
1 26487U 00052A   03045.23369793  .00000072  00000-0  10000-3 0  3557
2 26487   0.0241 276.4338 0003902  58.5322 262.9198  1.00273247  8975
ASTRA 2B
1 26494U 00054A   03041.00000000  .00000159  00000-0  00000+0 0  2540
2 26494   0.0178 354.5658 0005000 302.8402 230.4186  1.00276704  8833
NOAA 16
1 26536U 00055A   03045.75513293  .00000467  00000-0  27970-3 0  2076
2 26536  98.9013 354.0667 0010274 320.9503  39.0898 14.11904039123613
SAUDISAT 1A
1 26545U 00057A   03044.27158738  .00001663  00000-0  23895-3 0  4111
2 26545  64.5596  48.2041 0052420 239.6318 119.9553 14.78969627128433
UNISAT
1 26547U 00057C   03044.66622100  .00002739  00000-0  37156-3 0  4306
2 26547  64.5575  49.2439 0059558 241.8025 117.7061 14.79730551128469
TIUNGSAT 1
1 26548U 00057D   03045.99014050  .00002015  00000-0  27179-3 0  4157
2 26548  64.5573  35.8507 0045778 238.3933 121.2704 14.81262202128834
SAUDISAT 1B
1 26549U 00057E   03046.06319610  .00001480  00000-0  21930-3 0  6928
2 26549  64.5512  46.7916 0056878 239.4164 120.1323 14.77912316128629
AMSAT OSCAR 40
1 26609U 00072B   03042.26455231 -.00000067  00000-0  10000-3 0  3104
2 26609   8.0482  65.4048 7940113 142.6388 315.2305  1.25596326 10493
GOES 12
1 26871U 01031A   03044.63803907 -.00000152  00000-0  10000-3 0  8189
2 26871   0.3394 276.4190 0003237   5.2648 355.1756  1.00363016  5786
PCSAT
1 26931U 01043C   03045.53610388  .00000225  00000-0  12120-3 0  4011
2 26931  67.0475 265.9968 0005011 264.6676  95.3853 14.29113574 71773
SAPPHIRE
1 26932U 01043D   03045.58462881  .00000134  00000-0  84977-4 0  3962
2 26932  67.0548 265.5782 0005089 240.7364 119.3226 14.29293214 71804
ENVISAT
1 27386U 02009A   03046.12189694 -.00000431  00000-0 -14370-3 0  9404
2 27386  98.5453 114.7180 0000879 103.1675 256.9526 14.32248395 50259
IDEFIX/ARIANE 42P
1 27422U 02021B   03045.88874547  .00000277  00000-0  12952-3 0  2334
2 27422  98.6955 125.1078 0012928 157.3250 202.8502 14.27968186 40937
FENGYUN 1D
1 27431U 02024B   03046.18649677  .00000002  00000-0  25994-4 0  2152
2 27431  98.7703  95.2598 0015929 132.1832 228.0694 14.09177797 38898
NOAA 17
1 27453U 02032A   03045.91006288  .00000301  00000-0  15227-3 0  3048
2 27453  98.7594 117.1417 0012145  11.1150 349.0294 14.23291510 33442
HOT BIRD 6
1 27499U 02038A   03044.99704955  .00000091  00000-0  10000-3 0   673
2 27499   0.0348 333.6449 0009014  37.5008 144.3150  1.00272840  1785
RUBIN 2
1 27605U 02058A   03045.84184668  .00000998  00000-0  18098-3 0   583
2 27605  64.5519 208.5533 0035049 114.9017 245.5937 14.71359344  8264
